Torna al catalogo

STARLINK-3691

AttivoComunicazioniVLEO
NORAD 51960·PAYLOAD·🇺🇸 United States

Lanciato Mar 9, 2022 da Cape Canaveral Space Force Station

Loading…

Prossimi Passaggi (prossime 24 ore)

TLE

AggiornatoSource: CelesTrak SupGP

Epoca: Sep 15, 2026, 02:00 UTC

1 51960C 22025E   26258.08381944 -.00037594  00000+0 -12088-2 0  2580
2 51960  53.1597 235.2842 0001371  92.5123 327.6153 15.31723524    14

Traccia STARLINK-3691 in tempo reale con AllMySat

Download on the App Store